EHI
0 0 0 0 0 0 0 0 0 0 0 0 0 0 0 0 0 0 0 0 0 0 0 0 0 0 0 0 0 0 0 0 0 0 0 0 0 0 0 0 0 1 0
0 0 0 0 0 0 0 0 0 0 0 0 0 0 0 0 0 0 0 0 0 0 0 0 0 0 0 0 0 0 0 0 0 0 0 0 0 0 0 0 0 1 1
0 0 0 0 0 0 0 0 0 0 0 0 0 0 0 0 0 0 0 0 0 0 0 0 0 0 0 0 0 0 0 0 0 0 0 0 0 0 0 0 0 1 1
0 0 0 0 0 0 0 0 0 0 0 0 0 0 0 0 0 0 0 0 0 0 0 0 0 0 0 0 0 0 0 0 0 0 0 0 0 0 0 0 0 1 1
0 0 0 0 0 0 0 0 0 0 0 0 0 0 0 0 0 0 0 0 0 0 0 0 0 0 0 0 0 0 0 0 0 0 0 0 0 0 0 0 0 0 0
0 0 0 0 0 0 0 0 0 0 0 0 0 0 0 0 0 0 0 0 0 0 0 0 0 0 0 0 0 0 0 0 0 0 0 0 0 0 0 0 0 0 0
0 0 0 0 0 0 0 0 0 0 0 0 0 0 0 0 0 0 0 0 0 0 0 0 0 0 0 0 0 0 0 0 0 0 0 0 0 0 0 0 0 0 0
0 0 0 0 0 0 0 0 0 0 0 0 0 0 0 0 0 0 0 0 0 0 0 0 0 0 0 0 0 0 0 0 0 0 0 0 0 0 0 0 0 0 0
0 0 0 0 0 0 0 0 0 0 0 0 0 0 0 0 0 0 0 0 0 0 1 0 0 0 0 0 0 0 0 0 0 0 0 0 0 0 0 0 0 0 0
0 0 0 0 0 0 0 0 0 0 0 0 0 0 0 0 0 0 0 0 0 0 0 0 0 0 0 0 0 0 0 1 0 0 0 0 0 0 0 0 0 0 0
0 0 0 0 0 0 0 0 0 0 0 0 0 0 0 0 0 0 0 0 0 0 0 0 0 0 0 0 0 0 0 0 0 0 0 0 0 0 0 0 0 0 0
0 0 0 0 0 0 0 0 0 0 0 0 0 0 0 0 0 0 0 0 0 0 0 0 0 0 0 0 0 0 0 0 0 0 0 0 0 0 0 0 0 0 0
0 0 0 0 0 0 0 0 0 0 0 0 0 0 0 0 0 0 0 0 0 0 0 0 0 0 0 0 0 0 0 0 0 0 0 0 0 0 0 0 0 0 0
0 0 0 0 0 0 0 0 0 0 0 0 0 0 0 0 0 0 0 0 0 0 0 0 0 0 0 0 0 0 0 0 0 0 0 0 0 0 0 0 0 0 0
0 0 0 0 0 0 0 0 0 0 0 0 0 0 0 0 0 0 0 0 0 0 0 0 0 0 0 0 0 0 0 0 0 0 0 0 0 0 0 0 0 0 0
0 0 0 0 0 0 0 0 0 0 0 0 0 0 0 0 0 0 0 0 0 0 0 0 0 0 0 0 0 0 0 0 0 0 0 0 0 0 0 0 0 0 0
0 0 0 0 0 0 0 0 0 0 0 0 0 0 0 0 0 0 0 0 0 0 0 0 0 0 0 0 0 0 0 0 0 0 0 0 0 0 0 0 0 0 0
0 0 0 0 0 0 0 0 0 0 0 0 0 0 0 0 0 0 0 0 0 0 0 0 0 0 0 0 0 0 0 0 0 0 0 0 0 0 0 0 0 0 0
0 0 0 0 0 0 0 0 0 0 0 0 0 0 0 0 0 0 0 0 0 0 0 0 0 0 0 0 0 0 0 0 0 0 0 0 0 0 0 0 0 0 0
0 0 0 0 0 0 0 0 0 0 0 0 0 0 0 0 0 0 0 0 0 0 0 0 0 0 0 0 0 0 0 0 0 0 0 0 0 0 0 0 0 0 0
0 0 0 0 0 0 0 0 0 0 0 0 0 0 0 0 0 0 0 0 0 0 0 0 0 0 0 0 0 0 0 0 0 0 0 0 0 0 0 0 0 0 0
0 0 0 0 0 0 0 0 0 0 0 0 0 0 0 0 0 0 0 0 0 0 0 0 0 0 0 0 0 0 0 0 0 0 0 0 0 0 0 0 0 0 0
0 0 0 0 0 0 0 0 0 0 0 0 0 0 0 0 0 0 0 0 0 0 0 0 0 0 0 0 0 0 0 0 0 0 0 0 0 0 0 0 0 0 0
0 0 0 0 0 0 0 0 0 0 0 0 0 0 0 0 0 0 0 0 0 0 0 0 0 0 0 0 0 0 0 0 0 0 0 0 0 0 0 0 0 0 0
0 0 0 0 0 0 0 0 0 0 0 0 0 0 0 0 0 0 0 0 0 0 0 0 0 0 0 0 0 0 0 0 0 0 0 0 0 0 0 0 0 0 0
0 0 0 0 0 0 0 0 0 0 0 0 0 0 0 0 0 0 0 0 0 0 0 0 0 0 0 0 0 0 0 0 0 0 0 0 0 0 0 0 0 0 0
Wind_Speed
4 6 4 3 4 5 6 6 6 5 4 3 4 4 4 4 3 3 4 4 4 4 3 3 3 2 2 3 4 3 3 3 2 1 2 3 4 4 3 4 3 4 5
3 5 4 4 4 5 5 6 6 5 5 3 3 4 3 3 3 3 4 5 5 4 4 3 2 2 2 3 4 3 2 3 3 3 2 2 2 3 5 3 4 4 4
4 4 4 4 4 4 5 5 5 6 6 6 3 4 4 3 3 4 3 4 4 4 3 4 3 2 2 2 3 4 4 3 3 4 3 3 4 2 3 4 4 4 3
3 3 3 4 4 5 5 6 6 6 6 6 5 6 5 4 5 4 3 4 4 4 3 3 3 3 2 2 3 3 3 3 3 3 4 3 2 2 2 2 3 4 4
2 2 3 3 4 5 4 4 4 5 5 5 5 4 4 4 4 5 5 4 4 3 3 3 3 3 3 3 3 2 3 3 4 3 3 3 2 2 2 2 2 2 3
2 2 3 3 3 3 3 3 3 3 4 4 5 4 5 5 6 6 5 4 3 3 4 4 3 3 3 3 3 3 3 3 4 4 3 3 3 3 3 3 3 3 3
2 2 2 2 2 2 2 3 3 3 4 5 5 5 5 5 6 5 5 4 3 3 4 4 3 3 3 3 3 3 3 3 4 4 3 4 4 2 3 3 2 2 2
2 2 2 2 1 1 2 2 3 3 3 4 4 5 6 4 4 5 5 5 4 4 4 4 4 4 3 4 3 3 3 3 3 4 3 3 4 4 3 3 3 2 2
3 2 2 1 1 1 2 2 3 3 3 4 4 4 5 5 5 5 5 4 5 5 6 5 4 3 3 3 3 2 2 2 2 3 3 3 3 3 3 3 4 4 4
2 2 2 1 0 1 0 1 2 2 3 4 4 4 4 4 4 4 5 5 6 6 6 6 5 4 4 3 3 3 2 2 2 2 3 3 3 3 3 4 4 4 4
2 2 2 1 1 0 1 0 1 1 3 3 4 4 4 4 4 4 4 5 5 6 6 5 5 5 5 4 3 3 3 3 3 2 2 3 3 2 3 3 3 4 4
2 2 2 1 1 0 1 1 1 2 2 2 3 4 3 4 4 5 5 5 6 6 6 6 6 5 6 5 5 4 3 3 3 3 2 3 2 2 3 3 4 4 5
3 3 3 2 1 1 0 1 0 1 1 1 2 3 4 4 5 5 5 5 5 6 6 6 6 6 6 6 6 6 5 3 3 3 2 3 3 2 2 3 3 4 4
3 3 3 3 3 2 2 1 1 1 1 1 1 2 3 4 4 4 4 5 5 5 5 5 6 6 6 7 8 7 6 4 3 2 2 2 2 2 2 2 2 3 3
3 3 4 3 3 3 3 3 2 1 1 0 1 2 3 4 4 4 4 5 5 6 5 5 5 6 5 7 9 8 7 6 4 3 3 3 3 3 2 1 1 1 2
2 2 3 3 3 3 3 2 2 2 1 1 1 1 1 2 3 4 4 4 4 4 4 4 4 5 5 10 12 10 7 6 4 3 3 2 2 4 4 2 1 1 1
2 2 2 2 2 1 2 2 2 1 1 0 1 1 1 2 2 4 4 4 4 4 4 4 4 4 5 9 12 15 8 6 4 4 3 3 3 4 4 4 2 1 2
2 2 2 2 2 3 4 3 3 2 1 1 0 1 1 1 1 2 3 3 3 4 4 4 3 3 4 8 11 15 8 5 4 4 4 3 4 5 6 4 2 1 1
2 2 1 1 2 2 2 1 3 3 3 2 1 1 1 1 1 2 3 2 2 3 3 3 3 3 2 5 9 12 6 4 4 4 4 4 4 8 9 4 2 2 1
2 2 1 1 0 2 3 1 2 1 2 2 1 1 0 1 2 2 3 3 3 3 3 3 3 3 2 2 6 9 4 4 4 3 3 5 5 8 8 4 3 2 2
3 1 0 0 1 1 1 2 2 1 2 2 0 1 2 3 3 3 3 4 3 3 4 5 4 2 1 1 1 4 3 4 5 3 2 2 6 7 7 5 2 2 3
3 2 1 1 1 0 1 2 2 1 1 1 1 3 4 4 3 3 4 4 4 4 5 4 3 2 2 2 2 2 3 4 3 3 2 2 5 7 7 4 3 5 4
3 3 2 1 1 2 2 2 2 1 1 3 4 5 5 5 5 5 5 4 4 3 3 3 3 2 1 3 4 4 5 5 2 2 4 5 6 6 4 3 4 4 2
2 2 2 2 2 2 2 2 2 2 3 4 5 5 5 5 4 4 4 3 3 3 3 3 3 3 2 1 1 1 2 3 3 3 4 6 6 4 4 4 3 2 1
2 2 1 1 2 2 1 0 1 2 4 5 4 5 5 4 3 3 4 4 4 4 4 3 3 3 2 1 1 0 1 1 2 4 3 3 3 3 3 3 2 2 2
3 3 2 2 3 4 4 4 3 3 4 5 5 3 3 3 3 3 4 8 9 9 11 10 7 5 6 6 5 4 4 4 4 3 3 4 4 3 3 3 3 2 2
Wind_Direction
62 78 58 40 22 25 15 3 7 3 12 6 341 332 331 326 324 330 337 327 317 315 306 299 297 269 241 240 234 232 225 222 207 216 256 261 257 257 243 251 252 223 188
38 69 51 39 31 30 18 3 9 5 13 2 345 325 324 312 316 331 337 336 328 320 312 311 305 290 266 255 242 229 214 223 198 181 182 232 257 264 247 241 251 245 202
25 34 35 28 29 35 21 4 11 8 12 2 1 342 333 329 341 340 336 326 320 317 317 317 308 295 269 254 251 237 219 220 215 197 183 185 206 220 249 233 240 253 239
50 41 40 30 22 34 26 7 13 11 12 0 1 346 345 344 334 330 322 324 328 330 338 319 309 303 294 274 262 249 228 218 222 225 225 216 172 173 232 262 236 243 243
76 51 58 47 32 33 26 8 9 11 7 351 342 338 352 339 326 328 333 338 335 327 329 322 319 305 297 286 278 280 250 227 220 216 215 220 218 204 184 227 243 254 250
99 96 73 70 50 38 22 356 3 4 353 342 341 353 356 340 334 341 342 337 333 329 341 338 331 318 309 305 294 280 264 248 236 228 217 202 197 198 191 207 217 227 255
95 85 74 63 50 24 15 352 359 353 356 347 346 354 356 347 344 348 341 339 336 335 337 336 323 315 304 301 295 283 269 259 246 234 224 221 222 209 196 197 209 216 235
110 85 76 75 57 13 20 1 351 344 350 347 352 358 359 356 350 347 343 342 338 332 333 327 318 317 314 312 303 288 276 265 258 253 239 225 225 220 210 199 190 206 220
135 137 109 62 39 28 20 360 351 349 354 356 351 2 2 355 347 344 347 345 338 334 340 327 328 326 319 311 312 299 290 287 269 265 261 241 230 220 217 211 196 189 207
154 141 130 124 57 33 354 2 350 353 7 357 355 3 357 347 337 339 351 344 334 336 332 337 340 338 337 334 334 320 302 293 283 264 261 254 233 225 217 216 209 201 200
152 139 133 143 151 293 299 299 360 37 33 4 357 353 347 339 335 348 351 344 340 342 342 344 348 354 352 347 338 329 327 319 306 297 287 281 257 235 225 219 211 207 201
148 154 155 170 180 214 319 347 28 45 52 18 349 337 338 347 353 357 360 352 347 346 346 352 0 4 1 351 347 346 343 320 310 305 297 288 283 256 234 223 214 208 204
170 177 162 184 193 195 231 310 35 68 73 51 337 338 351 360 356 359 360 347 349 350 350 2 4 6 6 1 359 351 339 325 310 304 299 297 302 276 252 233 222 212 208
181 183 171 202 195 201 202 206 167 154 169 137 347 356 352 359 357 360 352 347 353 350 355 4 5 7 6 7 1 350 339 335 333 334 337 333 330 308 293 265 245 219 205
194 191 185 203 197 200 198 186 168 178 163 111 49 29 360 359 357 349 350 359 353 350 359 2 5 3 5 14 1 345 343 341 345 357 8 13 16 11 345 319 314 283 215
204 199 199 191 205 214 186 162 156 164 179 179 126 93 2 356 347 340 351 353 336 338 357 357 3 1 7 0 1 356 340 334 340 349 351 351 16 16 6 332 292 273 229
177 188 217 190 196 192 117 109 106 125 203 160 123 115 38 0 344 344 347 336 335 354 350 346 353 356 0 359 356 352 336 327 343 353 350 359 20 14 358 337 309 280 268
153 173 201 175 191 179 145 146 167 190 178 117 251 174 166 285 321 325 321 320 340 342 332 331 337 339 0 4 357 348 334 329 346 358 360 11 23 14 360 336 336 347 330
105 126 173 179 192 140 122 182 195 178 165 159 256 243 175 193 292 304 303 311 319 312 311 318 322 323 349 10 3 355 326 332 347 2 13 21 26 9 3 353 352 3 356
82 78 110 284 258 120 115 275 272 207 160 158 213 270 166 209 264 287 298 296 287 284 292 295 294 302 316 19 7 359 333 341 342 346 27 47 27 5 4 356 356 3 355
103 90 285 340 7 47 125 248 278 347 102 109 70 299 271 245 234 243 270 282 285 288 284 276 261 244 241 176 10 360 350 338 330 335 1 28 13 2 355 351 355 340 331
134 155 227 185 147 348 303 282 290 17 81 131 220 254 258 259 255 230 244 259 269 278 277 275 277 245 198 182 201 280 308 316 317 327 350 3 351 344 340 342 334 331 334
144 159 191 219 227 205 196 264 288 264 221 212 227 239 247 241 233 233 242 250 253 259 275 282 284 276 219 189 207 240 280 302 306 311 320 312 312 321 314 302 306 314 303
116 138 179 209 246 237 177 205 254 257 253 243 235 235 242 244 237 222 224 237 250 262 276 288 291 289 275 227 175 236 273 291 300 305 299 295 289 285 287 288 280 263 256
78 91 66 18 341 331 352 58 308 300 286 275 258 246 242 235 238 239 231 233 233 224 230 244 260 282 286 218 169 168 343 355 343 324 301 279 269 260 255 251 242 231 222
55 67 61 45 3 358 16 21 4 338 319 311 310 303 294 269 242 244 255 239 234 239 233 231 233 249 244 215 216 225 245 274 305 315 288 281 270 261 258 255 250 237 226